Time,TemperatureF,DewpointF,PressureIn,WindDirection,WindDirectionDegrees,WindSpeedMPH,WindSpeedGustMPH,Humidity,HourlyPrecipIn,Conditions,Clouds,dailyrainin,SolarRadiationWatts/m^2,SoftwareType,DateUTC
2013-01-29 00:11:00,-90.0,-99.9,30.22,South,177,0.0,3.0,-999,0.00,,,0.03,0,weatherlink.com 1.10,2013-01-29 05:11:00,
2013-01-29 00:26:00,-90.0,-99.9,30.22,South,177,0.0,3.0,-999,0.00,,,0.03,0,weatherlink.com 1.10,2013-01-29 05:26:00,
2013-01-29 00:41:00,-90.0,-99.9,30.22,South,177,0.0,3.0,-999,0.00,,,0.03,0,weatherlink.com 1.10,2013-01-29 05:41:00,
2013-01-29 00:56:00,-90.0,-99.9,30.21,South,177,0.0,3.0,-999,0.00,,,0.03,0,weatherlink.com 1.10,2013-01-29 05:56:00,
2013-01-29 01:11:00,-90.0,-99.9,30.22,South,177,0.0,1.0,-999,0.00,,,0.03,0,weatherlink.com 1.10,2013-01-29 06:11:00,
2013-01-29 01:26:00,-90.0,-99.9,30.21,South,177,0.0,2.0,-999,0.00,,,0.03,0,weatherlink.com 1.10,2013-01-29 06:26:00,
2013-01-29 01:41:00,-90.0,-99.9,30.21,South,177,0.0,1.0,-999,0.00,,,0.03,0,weatherlink.com 1.10,2013-01-29 06:41:00,
2013-01-29 01:56:00,-90.0,-99.9,30.20,ENE,78,2.0,7.0,-999,0.00,,,0.03,0,weatherlink.com 1.10,2013-01-29 06:56:00,
2013-01-29 02:11:00,-90.0,-99.9,30.20,ESE,111,3.0,9.0,-999,0.00,,,0.03,0,weatherlink.com 1.10,2013-01-29 07:11:00,
2013-01-29 02:26:00,-90.0,-99.9,30.20,SE,136,2.0,8.0,-999,0.00,,,0.03,0,weatherlink.com 1.10,2013-01-29 07:26:00,
2013-01-29 02:41:00,-90.0,-99.9,30.20,ESE,103,0.0,7.0,-999,0.00,,,0.03,0,weatherlink.com 1.10,2013-01-29 07:41:00,
2013-01-29 02:57:00,-90.0,-99.9,30.19,ESE,102,3.0,9.0,-999,0.00,,,0.03,0,weatherlink.com 1.10,2013-01-29 07:57:00,
2013-01-29 03:12:00,-90.0,-99.9,30.17,ESE,103,3.0,10.0,-999,0.00,,,0.03,0,weatherlink.com 1.10,2013-01-29 08:12:00,
2013-01-29 03:27:00,-90.0,-99.9,30.18,SE,145,1.0,10.0,-999,0.00,,,0.03,0,weatherlink.com 1.10,2013-01-29 08:27:00,
2013-01-29 03:42:00,-90.0,-99.9,30.17,SE,125,0.0,8.0,-999,0.00,,,0.03,0,weatherlink.com 1.10,2013-01-29 08:42:00,
2013-01-29 03:57:00,-90.0,-99.9,30.18,SSE,160,2.0,7.0,-999,0.00,,,0.03,0,weatherlink.com 1.10,2013-01-29 08:57:00,
2013-01-29 04:12:00,-90.0,-99.9,30.18,SSE,166,3.0,6.0,-999,0.00,,,0.03,0,weatherlink.com 1.10,2013-01-29 09:12:00,
2013-01-29 04:27:00,-90.0,-99.9,30.16,East,95,8.0,12.0,-999,0.00,,,0.03,0,weatherlink.com 1.10,2013-01-29 09:27:00,
2013-01-29 04:42:00,-90.0,-99.9,30.14,ESE,112,3.0,12.0,-999,0.00,,,0.03,0,weatherlink.com 1.10,2013-01-29 09:42:00,
2013-01-29 04:57:00,-90.0,-99.9,30.15,SE,134,5.0,11.0,-999,0.00,,,0.03,0,weatherlink.com 1.10,2013-01-29 09:57:00,
2013-01-29 05:12:00,-90.0,-99.9,30.15,SE,136,7.0,16.0,-999,0.00,,,0.03,0,weatherlink.com 1.10,2013-01-29 10:12:00,
2013-01-29 05:27:00,-90.0,-99.9,30.15,ESE,119,7.0,18.0,-999,0.00,,,0.03,0,weatherlink.com 1.10,2013-01-29 10:27:00,
2013-01-29 05:42:00,-90.0,-99.9,30.15,SE,132,6.0,11.0,-999,0.00,,,0.00,0,weatherlink.com 1.10,2013-01-29 10:42:00,
2013-01-29 05:57:00,-90.0,-99.9,30.16,ESE,105,3.0,13.0,-999,0.00,,,0.00,0,weatherlink.com 1.10,2013-01-29 10:57:00,
2013-01-29 06:12:00,-90.0,-99.9,30.15,ESE,113,3.0,12.0,-999,0.00,,,0.00,0,weatherlink.com 1.10,2013-01-29 11:12:00,
2013-01-29 06:28:00,-90.0,-99.9,30.14,ESE,111,4.0,12.0,-999,0.00,,,0.00,0,weatherlink.com 1.10,2013-01-29 11:28:00,
2013-01-29 06:43:00,-90.0,-99.9,30.15,ENE,66,5.0,8.0,-999,0.00,,,0.00,0,weatherlink.com 1.10,2013-01-29 11:43:00,
2013-01-29 06:58:00,-90.0,-99.9,30.13,ESE,105,3.0,11.0,-999,0.00,,,0.00,0,weatherlink.com 1.10,2013-01-29 11:58:00,
2013-01-29 07:13:00,-90.0,-99.9,30.14,SSE,150,5.0,13.0,-999,0.00,,,0.00,0,weatherlink.com 1.10,2013-01-29 12:13:00,
2013-01-29 07:28:00,-90.0,-99.9,30.13,ESE,119,5.0,9.0,-999,0.00,,,0.00,0,weatherlink.com 1.10,2013-01-29 12:28:00,
2013-01-29 07:43:00,-90.0,-99.9,30.11,East,92,2.0,12.0,-999,0.00,,,0.00,0,weatherlink.com 1.10,2013-01-29 12:43:00,
2013-01-29 07:58:00,-90.0,-99.9,30.10,East,96,9.0,13.0,-999,0.00,,,0.00,0,weatherlink.com 1.10,2013-01-29 12:58:00,
2013-01-29 08:13:00,-90.0,-99.9,30.10,ESE,110,4.0,13.0,-999,0.00,,,0.00,0,weatherlink.com 1.10,2013-01-29 13:13:00,
2013-01-29 08:28:00,-90.0,-99.9,30.10,ESE,120,4.0,14.0,-999,0.00,,,0.00,5,weatherlink.com 1.10,2013-01-29 13:28:00,
2013-01-29 08:43:00,-90.0,-99.9,30.11,ESE,123,8.0,17.0,-999,0.00,,,0.00,5,weatherlink.com 1.10,2013-01-29 13:43:00,
2013-01-29 08:58:00,-90.0,-99.9,30.10,ESE,106,8.0,12.0,-999,0.00,,,0.00,9,weatherlink.com 1.10,2013-01-29 13:58:00,
2013-01-29 09:13:00,-90.0,-99.9,30.10,East,98,8.0,12.0,-999,0.00,,,0.00,12,weatherlink.com 1.10,2013-01-29 14:13:00,
2013-01-29 09:28:00,-90.0,-99.9,30.09,SE,144,7.0,12.0,-999,0.00,,,0.00,21,weatherlink.com 1.10,2013-01-29 14:28:00,
2013-01-29 09:44:00,-90.0,-99.9,30.09,East,98,8.0,13.0,-999,0.00,,,0.00,23,weatherlink.com 1.10,2013-01-29 14:44:00,
2013-01-29 09:59:00,-90.0,-99.9,30.09,SE,126,7.0,13.0,-999,0.00,,,0.00,25,weatherlink.com 1.10,2013-01-29 14:59:00,
2013-01-29 10:14:00,-90.0,-99.9,30.08,ESE,104,7.0,15.0,-999,0.00,,,0.00,32,weatherlink.com 1.10,2013-01-29 15:14:00,
2013-01-29 10:29:00,-90.0,-99.9,30.07,SE,146,6.0,12.0,-999,0.00,,,0.00,47,weatherlink.com 1.10,2013-01-29 15:29:00,
2013-01-29 10:44:00,-90.0,-99.9,30.06,SE,139,0.0,13.0,-999,0.00,,,0.00,49,weatherlink.com 1.10,2013-01-29 15:44:00,
2013-01-29 10:59:00,-90.0,-99.9,30.05,East,86,5.0,11.0,-999,0.00,,,0.00,53,weatherlink.com 1.10,2013-01-29 15:59:00,
2013-01-29 11:14:00,-90.0,-99.9,30.03,East,98,8.0,15.0,-999,0.00,,,0.00,67,weatherlink.com 1.10,2013-01-29 16:14:00,
2013-01-29 11:29:00,-90.0,-99.9,30.03,ESE,102,7.0,13.0,-999,0.00,,,0.00,86,weatherlink.com 1.10,2013-01-29 16:29:00,
2013-01-29 11:44:00,-90.0,-99.9,30.03,ESE,103,2.0,11.0,-999,0.00,,,0.00,105,weatherlink.com 1.10,2013-01-29 16:44:00,
2013-01-29 11:59:00,-90.0,-99.9,30.02,NE,55,7.0,10.0,-999,0.00,,,0.00,114,weatherlink.com 1.10,2013-01-29 16:59:00,
2013-01-29 12:14:00,-90.0,-99.9,30.01,SE,139,1.0,14.0,-999,0.00,,,0.00,77,weatherlink.com 1.10,2013-01-29 17:14:00,
2013-01-29 12:29:00,-90.0,-99.9,30.00,SSW,198,4.0,12.0,-999,0.00,,,0.00,113,weatherlink.com 1.10,2013-01-29 17:29:00,
2013-01-29 12:44:00,-90.0,-99.9,29.96,East,96,7.0,14.0,-999,0.00,,,0.00,105,weatherlink.com 1.10,2013-01-29 17:44:00,
2013-01-29 12:59:00,-90.0,-99.9,29.96,East,91,5.0,15.0,-999,0.00,,,0.00,109,weatherlink.com 1.10,2013-01-29 17:59:00,
2013-01-29 13:15:00,-90.0,-99.9,29.95,ENE,74,2.0,12.0,-999,0.00,,,0.00,54,weatherlink.com 1.10,2013-01-29 18:15:00,
2013-01-29 13:30:00,-90.0,-99.9,29.96,East,82,8.0,11.0,-999,0.00,,,0.00,60,weatherlink.com 1.10,2013-01-29 18:30:00,
2013-01-29 13:45:00,-90.0,-99.9,29.94,East,88,8.0,11.0,-999,0.01,,,0.01,63,weatherlink.com 1.10,2013-01-29 18:45:00,
2013-01-29 14:00:00,-90.0,-99.9,29.94,East,98,6.0,10.0,-999,0.01,,,0.01,88,weatherlink.com 1.10,2013-01-29 19:00:00,
2013-01-29 14:15:00,-90.0,-99.9,29.91,East,91,5.0,14.0,-999,0.01,,,0.01,91,weatherlink.com 1.10,2013-01-29 19:15:00,
2013-01-29 14:30:00,-90.0,-99.9,29.91,ESE,121,7.0,10.0,-999,0.01,,,0.01,74,weatherlink.com 1.10,2013-01-29 19:30:00,
2013-01-29 14:45:00,-90.0,-99.9,29.91,SE,131,1.0,11.0,-999,0.00,,,0.01,70,weatherlink.com 1.10,2013-01-29 19:45:00,
2013-01-29 15:00:00,-90.0,-99.9,29.91,East,94,5.0,13.0,-999,0.00,,,0.01,53,weatherlink.com 1.10,2013-01-29 20:00:00,
2013-01-29 15:15:00,-90.0,-99.9,29.91,ESE,111,2.0,11.0,-999,0.00,,,0.01,51,weatherlink.com 1.10,2013-01-29 20:15:00,
2013-01-29 15:30:00,-90.0,-99.9,29.90,ESE,121,4.0,11.0,-999,0.00,,,0.01,44,weatherlink.com 1.10,2013-01-29 20:30:00,
2013-01-29 15:45:00,-90.0,-99.9,29.90,East,94,3.0,10.0,-999,0.00,,,0.01,25,weatherlink.com 1.10,2013-01-29 20:45:00,
2013-01-29 16:00:00,-90.0,-99.9,29.89,SE,130,4.0,9.0,-999,0.00,,,0.01,28,weatherlink.com 1.10,2013-01-29 21:00:00,
2013-01-29 16:15:00,-90.0,-99.9,29.89,SE,146,3.0,8.0,-999,0.00,,,0.01,25,weatherlink.com 1.10,2013-01-29 21:15:00,
2013-01-29 16:30:00,-90.0,-99.9,29.89,SSE,147,2.0,10.0,-999,0.00,,,0.01,9,weatherlink.com 1.10,2013-01-29 21:30:00,
2013-01-29 16:46:00,-90.0,-99.9,29.88,ESE,112,1.0,10.0,-999,0.00,,,0.01,7,weatherlink.com 1.10,2013-01-29 21:46:00,
2013-01-29 17:01:00,-90.0,-99.9,29.87,NNE,30,2.0,8.0,-999,0.00,,,0.01,9,weatherlink.com 1.10,2013-01-29 22:01:00,
2013-01-29 17:16:00,-90.0,-99.9,29.88,ESE,105,5.0,11.0,-999,0.00,,,0.01,7,weatherlink.com 1.10,2013-01-29 22:16:00,
2013-01-29 17:31:00,-90.0,-99.9,29.88,ENE,77,2.0,7.0,-999,0.00,,,0.01,0,weatherlink.com 1.10,2013-01-29 22:31:00,
2013-01-29 17:46:00,-90.0,-99.9,29.88,East,82,3.0,8.0,-999,0.00,,,0.01,0,weatherlink.com 1.10,2013-01-29 22:46:00,
2013-01-29 18:01:00,-90.0,-99.9,29.88,East,93,3.0,7.0,-999,0.00,,,0.01,0,weatherlink.com 1.10,2013-01-29 23:01:00,
2013-01-29 18:16:00,-90.0,-99.9,29.86,East,90,3.0,7.0,-999,0.02,,,0.03,0,weatherlink.com 1.10,2013-01-29 23:16:00,
2013-01-29 18:31:00,-90.0,-99.9,29.85,East,98,3.0,5.0,-999,0.03,,,0.04,0,weatherlink.com 1.10,2013-01-29 23:31:00,
2013-01-29 18:46:00,-90.0,-99.9,29.86,NE,46,1.0,4.0,-999,0.04,,,0.05,0,weatherlink.com 1.10,2013-01-29 23:46:00,
2013-01-29 19:01:00,-90.0,-99.9,29.86,ESE,115,0.0,3.0,-999,0.03,,,0.05,0,weatherlink.com 1.10,2013-01-30 00:01:00,
2013-01-29 19:16:00,-90.0,-99.9,29.86,ESE,118,3.0,5.0,-999,0.04,,,0.07,0,weatherlink.com 1.10,2013-01-30 00:16:00,
2013-01-29 19:31:00,-90.0,-99.9,29.86,ESE,109,2.0,3.0,-999,0.03,,,0.07,0,weatherlink.com 1.10,2013-01-30 00:31:00,
2013-01-29 19:46:00,-90.0,-99.9,29.87,ESE,105,0.0,3.0,-999,0.04,,,0.09,5,weatherlink.com 1.10,2013-01-30 00:46:00,
2013-01-29 20:01:00,-24.6,-99.9,29.86,ENE,63,2.0,5.0,-999,0.04,,,0.09,18,weatherlink.com 1.10,2013-01-30 01:01:00,
2013-01-29 20:17:00,-27.3,-99.9,29.86,East,85,0.0,2.0,-999,0.03,,,0.10,16,weatherlink.com 1.10,2013-01-30 01:17:00,
2013-01-29 20:32:00,-27.3,-99.9,29.86,East,83,0.0,2.0,-999,0.04,,,0.11,14,weatherlink.com 1.10,2013-01-30 01:32:00,
2013-01-29 20:47:00,-25.3,-99.9,29.85,North,5,0.0,3.0,-999,0.03,,,0.12,16,weatherlink.com 1.10,2013-01-30 01:47:00,
2013-01-29 21:02:00,-27.7,-99.9,29.85,NNW,332,0.0,1.0,-999,0.04,,,0.13,16,weatherlink.com 1.10,2013-01-30 02:02:00,
2013-01-29 21:17:00,-27.7,-99.9,29.83,NNW,346,3.0,4.0,-999,0.03,,,0.13,16,weatherlink.com 1.10,2013-01-30 02:17:00,
2013-01-29 21:32:00,-27.7,-99.9,29.82,NNW,345,1.0,4.0,-999,0.03,,,0.14,18,weatherlink.com 1.10,2013-01-30 02:32:00,
2013-01-29 21:47:00,-27.0,-99.9,29.81,NE,38,0.0,2.0,-999,0.04,,,0.16,14,weatherlink.com 1.10,2013-01-30 02:47:00,
2013-01-29 22:02:00,-26.6,-99.9,29.81,NE,38,0.0,0.0,-999,0.06,,,0.19,14,weatherlink.com 1.10,2013-01-30 03:02:00,
2013-01-29 22:17:00,-27.0,-99.9,29.80,NE,38,0.0,2.0,-999,0.10,,,0.23,16,weatherlink.com 1.10,2013-01-30 03:17:00,
2013-01-29 22:32:00,-27.7,-99.9,29.79,NE,38,0.0,2.0,-999,0.13,,,0.27,14,weatherlink.com 1.10,2013-01-30 03:32:00,
2013-01-29 22:47:00,-26.0,-99.9,29.77,NW,322,0.0,2.0,-999,0.14,,,0.31,12,weatherlink.com 1.10,2013-01-30 03:47:00,
2013-01-29 23:02:00,-28.4,-99.9,29.76,NNW,333,1.0,4.0,-999,0.14,,,0.34,12,weatherlink.com 1.10,2013-01-30 04:02:00,
2013-01-29 23:17:00,-27.3,-99.9,29.75,North,5,0.0,3.0,-999,0.14,,,0.37,12,weatherlink.com 1.10,2013-01-30 04:17:00,
2013-01-29 23:33:00,-26.0,-99.9,29.76,North,5,0.0,0.0,-999,0.12,,,0.39,12,weatherlink.com 1.10,2013-01-30 04:33:00,
2013-01-29 23:48:00,-28.4,-99.9,29.75,North,5,0.0,0.0,-999,0.10,,,0.41,12,weatherlink.com 1.10,2013-01-30 04:48:00,